Theta_e
325 326 326 327 327 327 326 326 326 325 324 323 323 324 325 326 325 318 310 321 325 332 327 322 317 314 314 313 315 312 298 295 301 303 305 309 307 309 309 309 312 313 314 317 324
325 325 326 326 326 326 326 326 325 324 323 322 321 322 324 325 316 310 326 331 333 333 318 316 311 312 306 310 310 303 297 298 306 306 306 308 308 308 306 307 308 309 314 317 319
324 324 325 325 326 326 326 325 325 324 323 322 321 321 322 323 307 308 329 328 331 331 319 316 315 310 305 307 305 303 298 303 306 310 310 308 307 309 306 304 307 307 310 312 312
323 323 324 324 325 325 326 325 324 324 324 322 322 321 322 318 291 318 326 328 331 329 317 311 310 305 301 301 305 300 303 306 309 310 309 307 309 306 308 307 311 311 310 310 310
322 322 322 323 325 325 325 325 324 324 324 323 322 321 318 303 303 320 323 326 325 322 312 308 306 303 299 300 305 302 302 307 310 309 308 310 306 305 304 308 310 310 312 310 310
321 322 322 322 323 324 324 324 323 324 324 323 322 322 312 296 314 317 318 320 320 317 311 310 306 306 303 301 302 303 304 305 308 307 307 305 304 303 304 309 308 309 308 308 309
321 321 321 322 322 323 323 323 323 323 324 323 322 317 308 303 314 316 316 317 322 318 310 314 313 307 304 302 308 306 299 302 303 305 303 304 298 299 304 306 306 306 306 307 308
320 321 320 321 321 321 321 322 322 323 323 324 322 315 303 314 314 312 315 314 322 322 320 320 318 311 307 308 304 299 296 290 298 301 303 298 288 297 303 303 302 304 303 303 307
318 319 320 320 320 320 320 320 319 322 323 322 314 310 302 314 308 312 312 309 317 320 320 321 317 307 306 298 294 295 287 289 295 302 300 297 291 301 305 302 301 302 303 304 304
317 318 319 319 319 319 320 320 319 319 318 318 314 304 306 303 309 311 313 313 313 314 312 309 305 299 299 294 286 289 289 291 290 298 299 296 295 299 303 303 302 302 302 303 303
316 318 318 318 318 319 317 312 305 303 308 302 302 303 305 308 312 309 310 309 312 308 297 304 295 291 295 297 295 294 291 289 292 298 295 294 295 298 300 300 299 300 301 302 303
316 317 318 318 318 318 314 305 304 307 298 306 306 306 307 309 301 305 311 304 303 296 299 297 292 297 298 297 296 294 292 290 295 298 296 294 294 297 299 299 300 300 301 301 302
316 316 317 317 317 314 309 307 312 311 297 300 304 304 304 306 301 302 305 304 299 296 296 293 296 300 297 295 294 293 291 290 290 295 296 293 289 293 297 299 300 299 299 300 300
315 316 316 317 310 310 306 312 312 311 290 292 297 302 305 305 298 307 306 303 299 294 296 295 298 297 295 294 295 289 296 295 294 291 284 291 280 289 293 295 298 298 298 298 298
315 316 316 315 309 306 309 311 310 306 277 293 296 309 305 299 299 301 307 303 296 295 296 292 294 294 293 294 296 292 297 295 294 291 288 288 283 287 292 291 294 296 298 298 298
315 315 315 312 310 310 309 308 303 284 276 287 295 295 296 298 299 302 301 304 302 297 297 295 299 297 295 298 297 299 295 294 292 289 278 286 285 284 288 291 292 296 297 297 296
314 314 313 312 303 309 308 300 283 279 287 284 289 293 294 293 295 296 294 293 291 288 288 292 294 297 298 294 296 296 290 279 278 276 277 287 284 285 292 294 294 296 296 295 295
313 313 311 311 310 309 303 288 279 284 282 290 291 292 288 292 293 294 292 289 294 293 289 286 283 293 297 295 291 293 290 281 276 277 278 285 280 286 294 296 297 297 296 295 294
313 310 307 309 310 307 295 282 283 285 288 288 290 286 287 290 291 291 291 290 292 294 287 286 286 294 296 296 296 292 288 293 283 278 277 281 286 291 295 294 295 295 294 293 293
306 304 303 309 310 303 289 285 285 292 291 291 283 288 282 287 287 288 289 293 292 295 295 289 283 291 293 296 295 293 295 283 283 271 271 278 280 282 289 291 294 294 293 293 292
302 292 301 309 307 295 284 286 286 293 294 290 286 285 286 286 287 287 288 291 295 294 295 291 288 287 292 290 288 289 287 289 288 282 276 274 278 288 290 292 291 293 294 293 291
294 285 300 307 289 285 285 286 292 290 293 291 291 289 287 288 287 287 287 290 296 296 291 293 289 283 286 292 295 293 289 289 280 279 282 280 280 293 292 293 294 293 294 294 293
285 289 299 303 283 284 287 289 291 290 289 289 289 291 291 288 284 288 289 293 294 295 291 293 286 277 282 286 290 288 290 291 289 286 281 279 279 291 292 292 293 292 293 293 292
287 284 289 294 291 288 286 286 286 292 291 292 290 291 290 287 290 286 288 292 294 295 296 295 288 283 278 282 287 284 286 289 288 281 282 283 284 289 291 291 291 292 292 292 291
286 284 284 282 285 287 289 288 285 284 290 292 288 289 288 284 285 286 290 289 292 294 294 292 281 286 287 286 285 285 285 286 284 285 282 284 285 289 291 292 293 295 293 293 292
285 285 285 285 288 288 288 286 286 286 288 286 285 289 289 286 287 285 288 288 288 291 291 292 280 285 279 285 285 282 285 285 285 285 285 285 285 291 293 292 292 293 294 293 292
291 293 290 285 285 286 285 286 287 289 290 291 290 289 287 289 292 293 292 293 292 289 288 287 281 276 271 281 280 273 280 283 284 286 285 281 286 290 289 291 291 292 293 292 292
Wind_Speed
16 15 15 13 12 11 10 9 8 6 3 2 3 5 7 10 12 7 5 3 7 11 13 11 10 7 8 4 3 3 2 5 8 5 7 8 6 1 1 6 4 2 9 7 7
16 15 15 14 13 12 10 9 8 7 4 2 3 5 7 9 8 8 6 8 9 8 8 7 8 8 5 2 2 2 3 6 6 2 10 9 6 9 5 8 6 6 7 8 8
16 16 15 15 14 13 11 10 8 8 6 2 2 3 6 7 5 2 6 9 8 5 6 8 7 7 6 3 3 3 3 1 6 9 9 7 1 2 5 7 5 10 7 5 4
16 16 16 16 15 14 13 11 10 8 7 5 2 2 6 4 3 3 5 7 7 4 6 5 5 4 4 6 5 3 1 6 7 5 4 3 3 4 7 4 7 5 3 2 5
17 16 15 16 16 16 15 13 11 10 8 5 3 1 3 4 2 5 3 4 4 2 7 8 7 6 6 4 3 5 2 3 9 3 4 5 4 5 6 6 5 2 3 4 7
20 17 16 16 16 17 15 14 12 10 9 8 4 3 4 5 2 3 4 5 4 3 6 6 3 5 5 2 4 3 3 3 6 3 1 2 6 4 6 9 8 5 5 6 8
20 20 18 18 17 15 14 14 13 11 10 8 5 3 2 5 2 5 2 2 3 3 3 2 4 2 2 1 5 3 0 5 4 5 3 2 8 12 10 7 8 7 8 8 8
21 21 20 19 18 16 13 11 11 11 11 10 5 3 5 2 5 0 1 3 1 1 4 4 4 5 3 5 2 3 3 4 5 8 3 6 7 4 12 9 9 7 9 5 6
22 20 22 21 19 18 15 11 10 10 11 11 5 2 4 3 3 3 4 3 4 2 1 3 4 2 1 4 4 5 3 8 4 7 5 9 7 7 5 2 6 7 7 6 7
22 22 23 22 20 18 16 14 10 8 7 6 3 2 5 3 5 3 2 4 3 5 4 3 3 4 3 5 4 5 6 5 6 7 5 7 15 10 6 9 9 9 8 8 7
26 24 25 23 22 22 20 12 6 4 6 6 7 3 3 3 1 2 4 4 2 6 5 7 4 8 9 9 11 7 3 7 4 6 3 8 13 13 10 8 8 8 7 8 9
28 28 26 24 23 28 16 10 15 5 6 4 1 9 3 2 3 6 1 7 7 7 8 4 8 8 6 6 5 4 7 5 5 5 3 8 14 16 14 11 11 10 9 9 7
33 33 30 27 24 18 19 18 10 7 5 10 7 7 5 5 3 11 9 5 7 11 11 7 3 13 8 3 3 7 7 6 4 1 6 10 12 12 9 12 6 2 3 3 9
34 31 29 27 17 15 15 7 6 3 2 8 11 8 8 5 4 10 12 7 6 11 7 8 3 4 8 8 8 8 8 7 5 2 3 5 7 5 4 6 7 8 4 8 10
33 32 30 27 13 15 14 5 5 1 6 16 10 5 13 10 11 5 7 4 6 7 7 4 7 8 7 9 7 2 4 5 6 5 4 3 4 7 4 5 7 8 10 9 9
32 32 32 13 6 15 16 13 9 5 8 4 7 11 14 11 7 5 5 1 1 5 5 3 2 2 5 1 7 6 4 3 1 1 2 10 7 5 6 4 1 9 10 9 8
26 31 28 12 9 15 17 10 5 6 3 7 7 14 16 11 10 9 13 10 8 7 8 3 4 3 2 5 3 5 6 2 0 0 6 2 7 6 5 4 3 7 10 10 8
30 26 20 8 20 21 8 5 6 6 4 6 12 16 15 14 10 12 14 11 12 6 9 7 5 8 6 5 5 7 6 4 4 3 2 2 7 6 1 5 7 10 10 9 8
30 13 10 11 20 16 9 6 7 6 9 13 14 13 9 12 5 10 12 12 14 13 5 7 4 4 4 3 5 6 7 3 3 2 3 6 6 9 7 6 6 8 8 8 8
11 11 6 24 21 16 9 7 6 6 12 17 6 7 6 15 7 12 14 14 9 14 4 3 4 2 2 3 7 1 2 3 1 2 5 5 6 8 4 10 7 8 8 8 8
9 5 1 19 12 13 11 6 4 6 14 10 8 9 6 11 9 11 10 0 18 15 8 3 3 1 5 8 9 4 2 3 4 4 3 2 4 3 10 7 3 6 7 8 8
4 5 5 13 8 4 8 10 5 5 3 3 8 7 12 16 10 12 8 9 9 13 16 8 2 5 6 4 8 10 8 9 4 4 5 2 9 7 4 7 9 7 7 8 9
4 3 3 8 5 9 5 4 6 7 3 4 5 4 6 10 6 6 9 5 2 14 12 10 5 3 5 2 2 5 7 10 8 5 11 6 2 3 10 6 5 3 5 7 8
4 4 3 5 2 10 14 6 4 12 5 3 6 6 5 7 4 10 4 1 2 3 3 12 4 4 5 5 3 5 7 10 11 7 10 19 16 16 9 5 3 5 4 8 8
3 3 1 5 7 7 8 14 13 6 4 6 2 5 8 5 4 5 6 2 3 4 3 7 5 4 7 3 3 4 5 9 13 11 14 12 20 11 10 12 15 13 6 9 11
2 3 2 3 10 11 10 13 18 8 10 6 5 10 7 7 8 8 9 5 5 4 5 0 2 5 2 4 4 7 8 7 10 11 17 19 28 9 10 8 7 8 9 12 10
1 2 1 2 3 10 7 12 17 16 7 12 9 7 8 4 9 6 6 6 5 8 8 7 5 3 4 4 3 9 10 15 15 13 12 21 27 14 15 14 12 13 13 13 9
Wind_Direction
206 204 203 197 195 195 197 188 184 179 220 278 332 352 346 337 311 295 301 10 348 337 322 296 294 303 301 271 280 287 281 258 244 210 136 144 146 355 313 124 74 39 73 102 117
205 204 202 199 193 195 196 192 184 168 181 259 313 333 339 335 308 284 49 16 360 338 325 345 324 350 295 249 259 257 211 255 5 98 126 167 183 150 182 131 143 157 132 148 158
202 200 202 203 194 191 194 192 184 174 167 194 300 329 325 321 288 87 22 2 343 300 272 300 302 291 276 308 226 228 239 44 36 32 18 119 254 43 242 187 191 181 147 95 55
202 199 200 198 194 191 191 192 185 176 170 165 211 341 323 272 239 77 353 328 316 267 233 258 253 260 257 209 245 300 281 338 94 20 23 98 274 169 251 244 72 76 32 348 278
199 198 199 197 191 190 187 189 187 172 167 163 188 103 284 217 274 115 313 319 289 209 212 221 233 234 247 253 88 261 247 41 61 68 337 26 288 259 287 273 321 180 197 250 258
196 194 197 195 194 193 190 190 185 171 160 164 172 107 267 241 85 37 351 288 10 209 218 228 254 274 327 260 206 324 222 184 127 219 253 278 275 276 216 243 261 253 243 255 265
200 194 192 192 192 186 187 185 186 166 162 161 156 211 297 247 46 21 299 13 321 286 169 261 322 251 216 293 53 357 85 275 207 223 244 47 280 239 231 229 208 233 264 243 236
201 194 186 187 177 168 166 175 181 171 168 150 166 211 254 70 1 161 249 197 254 251 24 84 294 270 321 77 146 192 277 211 207 179 151 128 259 290 212 203 235 255 250 286 278
203 193 187 182 173 164 156 163 177 172 166 144 158 227 247 173 165 218 218 234 152 128 50 165 250 176 294 192 181 207 234 215 167 191 179 187 269 103 91 231 250 262 262 276 303
200 192 180 176 170 157 139 133 130 112 148 153 1 205 205 195 121 129 224 242 171 145 123 200 208 151 211 219 194 202 217 219 220 183 240 231 251 279 205 190 220 244 267 267 269
202 192 180 176 172 147 126 113 128 209 200 186 171 202 127 99 161 161 168 195 227 194 183 199 202 189 192 219 252 344 220 235 183 113 20 266 274 272 264 267 264 257 252 254 252
209 197 180 175 172 150 147 169 184 145 168 216 16 240 96 237 145 147 281 168 194 186 212 167 231 216 207 221 235 258 288 250 128 160 166 264 270 271 257 245 234 235 244 241 233
208 193 181 169 165 154 169 188 142 186 148 195 197 184 166 185 212 166 181 208 189 203 207 197 22 201 210 144 178 246 241 272 279 283 247 270 272 254 240 245 222 291 249 86 77
207 182 169 155 160 166 180 165 136 110 144 163 192 220 155 155 238 158 196 181 183 206 217 231 208 193 150 197 185 222 214 232 303 313 243 29 291 315 217 204 175 206 141 97 92
195 170 157 159 135 177 148 109 70 95 217 164 155 155 153 168 126 188 194 234 209 196 183 210 175 165 185 200 177 212 130 181 208 245 336 221 236 268 188 239 205 160 119 92 81
181 167 159 146 128 144 127 105 74 130 215 150 132 178 158 184 169 121 155 15 239 228 245 115 12 177 202 141 172 124 133 121 127 45 276 208 191 256 174 191 297 114 125 123 116
170 167 164 154 154 129 128 108 158 215 156 172 172 170 179 177 147 178 166 177 176 161 183 130 176 104 310 122 51 186 176 136 197 320 227 148 197 242 305 135 148 174 131 122 122
177 165 169 154 141 139 129 118 200 133 178 199 159 163 189 163 186 179 164 180 228 233 153 167 180 176 178 210 179 190 205 162 231 195 1 68 237 260 360 5 59 100 120 117 120
159 171 171 159 152 143 146 188 176 157 157 153 140 160 181 185 157 167 189 193 197 213 194 167 160 138 175 206 154 173 219 299 23 74 68 231 266 291 207 222 123 130 122 139 136
155 160 174 155 157 151 163 177 185 155 146 146 122 169 163 181 184 182 179 196 205 202 202 224 113 339 70 29 302 224 348 77 351 169 243 253 250 247 275 194 167 173 158 148 142
154 106 214 149 146 170 185 155 179 188 158 162 138 149 164 175 192 190 193 87 189 183 183 187 117 163 129 208 187 179 226 223 168 181 200 306 257 26 35 71 175 177 124 141 154
76 124 228 152 155 157 150 151 149 174 65 97 135 117 168 175 188 191 196 206 184 163 192 200 199 159 193 339 225 221 201 215 169 208 229 218 249 305 102 100 76 87 135 144 157
90 96 304 179 137 164 131 121 114 142 145 164 133 119 156 162 156 205 197 115 122 161 173 186 192 132 152 348 303 208 214 230 251 282 238 228 241 228 78 108 146 141 162 159 168
99 120 71 189 88 149 144 115 117 178 164 175 110 91 121 142 78 184 133 45 80 202 117 161 162 187 173 132 127 194 216 215 227 239 262 246 265 272 291 216 271 230 215 183 190
24 70 14 135 172 139 143 160 135 153 188 183 120 165 150 122 103 166 131 88 26 129 161 167 179 229 267 173 230 247 239 225 233 252 255 280 272 274 290 292 297 290 256 204 203
91 136 67 61 139 138 167 174 179 151 158 194 147 193 170 144 167 171 134 167 175 165 166 215 173 178 254 304 307 260 249 261 273 273 273 275 268 277 278 289 291 266 252 260 220
349 306 137 40 89 152 181 172 196 164 194 181 175 161 181 119 97 113 74 125 143 158 192 171 122 89 248 193 323 290 194 228 241 246 257 261 270 271 278 277 259 272 277 277 261